Wind_Speed
20 21 21 22 23 22 20 18 18 19 20 21 22 22 22 22 21 20 20 19 19 18 18 18 17 17 16 16 15 14 13 12 12 11 10 10 10 9 9 9 9 9 9 9 9 10 10 10 10
21 22 23 23 23 22 20 19 19 21 22 23 23 23 24 23 23 22 21 21 20 19 19 19 19 18 18 17 16 15 15 14 14 13 13 12 12 11 11 10 10 10 10 11 11 11 12 12 12
22 23 24 24 23 22 21 21 22 23 24 24 24 25 25 24 24 24 23 22 21 20 20 20 20 19 19 18 17 17 16 16 16 15 15 14 14 13 13 12 12 12 12 12 13 13 13 13 13
24 24 25 25 24 23 23 23 24 25 26 26 26 26 26 26 26 26 25 24 23 22 21 21 21 20 20 19 19 19 18 18 17 17 16 16 16 15 15 14 14 14 14 14 14 15 15 15 15
24 25 26 26 25 25 25 26 26 27 27 27 28 27 26 27 27 27 27 26 25 24 22 22 22 22 22 21 21 20 20 20 19 18 18 18 18 17 17 16 16 16 16 16 16 16 17 17 16
24 25 26 26 26 26 27 27 27 28 29 29 29 29 28 27 28 28 28 27 26 26 25 24 24 24 23 23 23 22 22 21 21 20 20 20 20 19 19 19 18 18 18 18 18 18 18 18 18
25 26 26 26 27 28 28 28 28 29 29 30 31 31 29 28 29 29 29 28 28 27 26 25 26 26 25 25 25 24 24 24 23 23 22 22 22 22 21 21 21 21 21 21 20 20 20 20 20
25 26 27 28 28 28 28 29 29 30 30 31 32 32 30 29 30 30 30 30 29 29 28 27 27 27 27 27 27 26 26 26 26 26 25 25 24 24 24 24 24 24 23 23 23 23 23 23 23
25 26 27 28 29 29 29 30 30 31 31 31 32 32 31 30 31 31 31 31 31 31 31 30 29 29 29 29 29 28 28 28 28 28 28 27 27 26 26 26 26 26 26 25 25 25 25 25 25
25 26 27 28 29 30 30 31 31 32 32 32 32 32 31 31 31 31 32 32 33 33 32 32 31 31 31 31 31 30 30 30 30 29 30 29 29 29 28 28 28 28 28 28 27 27 27 27 27
25 25 26 27 29 30 30 30 31 32 32 32 32 32 32 32 32 32 32 33 34 34 34 33 33 32 33 33 33 32 32 32 32 32 32 32 31 31 31 31 30 30 30 30 30 30 29 29 29
25 25 27 27 28 29 30 30 31 31 32 32 32 33 32 32 32 33 33 34 34 34 35 34 34 34 33 34 35 34 34 34 34 34 34 34 34 34 33 33 33 32 32 32 32 32 32 31 31
25 25 27 27 28 28 29 30 30 30 31 31 33 33 32 32 32 33 34 34 35 35 35 35 35 35 35 35 36 36 36 36 37 37 37 36 36 35 35 35 35 35 35 34 34 34 33 33 33
26 26 27 27 28 28 29 29 31 30 31 32 34 35 34 33 33 34 34 35 35 35 36 36 36 36 36 37 38 39 39 38 38 39 39 39 38 38 38 38 38 37 37 37 37 36 36 35 35
28 27 27 27 28 29 29 28 29 31 32 33 35 36 36 34 34 34 35 36 36 36 37 37 37 38 38 39 39 40 40 40 40 40 41 41 41 41 40 40 40 40 40 40 39 39 39 38 37
28 28 27 27 28 28 30 28 28 30 32 33 35 36 36 35 34 34 35 37 37 38 38 38 39 40 40 40 41 41 41 42 42 43 43 43 43 43 43 42 42 42 42 42 42 41 40 40 39
28 28 28 28 29 30 31 28 28 30 32 33 33 35 35 35 34 35 36 37 38 39 39 39 40 41 41 42 43 43 43 44 44 44 44 45 45 45 44 44 44 44 44 44 44 43 42 42 41
29 30 29 29 29 31 31 29 28 30 32 32 33 34 35 35 34 35 36 38 39 40 40 40 40 41 43 43 44 44 45 45 45 46 46 46 46 46 45 45 45 45 46 46 45 45 44 44 43
31 31 30 31 31 32 31 30 29 30 32 33 34 35 36 36 35 36 37 38 39 40 40 40 40 42 43 44 44 45 45 46 47 47 47 47 47 47 47 46 46 46 47 47 47 46 46 45 45
32 32 32 32 32 33 32 30 29 30 32 33 34 35 36 36 36 37 38 39 40 41 42 42 42 42 43 44 45 46 47 47 48 48 48 48 48 48 47 48 47 47 47 48 48 48 47 47 47
32 32 32 32 32 32 33 31 29 30 32 33 34 35 36 36 37 38 39 40 40 41 42 42 42 43 43 44 45 46 47 48 48 48 49 49 49 49 49 49 49 49 49 49 49 49 49 49 49
32 33 33 32 32 32 33 33 29 31 32 33 34 35 35 37 38 39 40 41 41 41 43 43 43 43 44 45 45 45 47 47 48 49 50 50 51 51 50 50 50 51 51 51 50 50 51 52 51
33 33 33 33 34 34 33 35 30 31 32 33 33 34 35 37 37 38 40 41 41 41 42 42 42 42 43 44 45 45 45 47 47 48 49 50 51 52 52 52 52 53 53 52 52 53 53 54 53
34 34 34 35 36 36 34 35 33 32 32 33 34 34 35 36 36 37 38 40 41 41 41 42 42 42 43 44 45 45 45 47 47 47 48 48 49 51 52 52 52 53 53 53 54 54 54 55 55
35 35 36 37 37 37 35 35 34 32 33 34 34 34 34 35 36 37 38 39 41 42 42 43 43 43 44 45 46 46 46 47 47 46 47 47 48 49 50 51 52 53 54 54 55 56 55 56 56
36 36 36 38 39 38 36 36 34 33 33 33 33 34 34 35 36 37 38 40 41 42 43 44 45 45 45 46 47 47 47 47 47 46 47 48 49 49 50 52 52 53 54 56 56 57 56 56 57
36 36 37 39 41 40 38 36 34 34 33 32 33 34 34 35 36 38 39 41 42 42 43 44 45 46 46 46 47 47 47 47 48 48 48 49 49 50 51 52 52 53 54 56 57 57 57 57 58
37 37 37 38 41 42 40 37 35 33 33 33 34 35 36 36 38 39 41 41 42 43 43 44 45 46 46 46 47 47 47 48 49 50 50 51 51 51 52 52 52 53 54 55 57 58 58 59 58
38 38 38 40 42 43 43 39 36 34 34 34 34 35 37 37 38 39 41 41 42 42 43 43 44 45 46 46 47 48 48 49 49 50 51 51 52 52 53 53 52 52 53 54 56 57 58 58 58
39 39 39 40 42 43 45 42 37 36 35 36 36 37 37 38 39 40 41 42 42 42 43 44 44 46 46 47 48 48 48 49 50 50 51 52 52 52 53 54 54 54 53 54 55 56 57 58 57
Wind_Direction
258 258 257 256 256 258 259 258 255 254 254 254 255 256 257 258 258 258 259 258 256 255 253 251 251 252 253 254 256 257 259 262 262 261 263 267 269 270 271 273 276 278 281 281 280 282 285 288 289
259 259 259 258 259 261 261 259 257 256 255 255 256 255 256 256 257 257 257 257 257 255 253 252 251 252 253 254 255 257 258 260 261 262 263 266 267 268 269 271 273 275 277 278 279 280 282 284 285
259 259 259 260 260 262 262 259 256 255 256 256 256 256 256 257 257 257 257 257 256 255 253 252 251 252 253 253 254 256 258 259 260 261 263 265 265 266 267 268 269 271 273 276 278 278 280 281 282
260 260 260 260 261 262 261 259 256 256 256 256 256 257 258 257 257 256 256 255 255 254 253 252 251 251 252 254 256 256 258 258 259 261 264 265 265 264 265 266 267 268 270 273 276 277 277 278 279
260 261 261 261 261 261 260 260 258 257 257 257 257 258 258 257 256 256 255 254 253 253 253 251 251 251 252 253 255 257 258 258 258 260 263 264 266 266 266 266 266 267 268 269 272 273 274 275 276
261 262 263 264 263 262 262 261 260 258 258 257 257 257 256 256 256 255 254 253 252 252 252 251 250 250 250 252 254 256 257 257 258 259 261 263 265 266 266 265 266 267 267 268 270 270 272 273 274
262 264 265 266 265 264 263 261 260 259 258 257 257 257 255 254 255 254 253 251 251 251 251 252 252 251 251 252 253 254 255 255 257 258 260 262 263 264 265 265 266 267 268 268 269 269 269 271 273
263 264 265 266 266 265 263 261 260 259 258 257 257 257 255 253 253 252 251 251 250 251 252 252 251 251 252 253 254 254 254 254 256 257 259 260 262 263 263 264 265 266 267 268 268 269 269 269 270
265 265 265 266 266 266 264 261 259 258 257 256 256 257 256 253 252 251 250 251 251 252 253 253 253 252 252 253 254 255 255 255 255 257 259 260 261 262 263 263 265 266 267 268 268 269 270 270 270
267 268 268 268 268 266 264 262 260 258 257 254 254 256 256 254 253 252 251 251 253 253 254 254 255 254 254 254 255 256 256 256 255 257 258 260 261 261 262 263 264 265 266 267 268 269 270 271 271
268 270 270 270 270 268 264 262 261 258 257 255 255 255 256 255 255 253 251 251 252 253 254 255 256 255 255 256 256 257 257 257 256 257 258 259 260 261 262 263 263 264 265 266 268 269 270 270 271
269 270 272 273 272 270 266 262 261 261 258 257 257 256 256 256 257 256 252 251 251 252 254 255 256 256 256 256 257 257 257 258 258 258 258 259 259 260 261 262 263 263 264 265 267 268 269 270 271
272 273 275 274 273 271 268 265 264 262 261 260 258 257 259 257 256 255 253 251 251 252 253 255 255 256 255 256 257 258 258 258 258 258 259 259 259 260 261 262 263 263 264 265 266 267 268 269 270
275 276 276 275 272 273 272 269 267 266 264 262 260 260 261 258 256 254 252 253 252 253 254 255 255 256 256 257 257 258 258 258 258 259 260 260 260 261 262 262 263 263 263 264 265 265 266 268 269
275 277 277 276 274 273 274 273 271 268 264 262 262 262 260 258 256 254 252 253 253 254 256 257 257 257 258 258 259 259 259 259 259 260 261 261 261 262 262 262 263 263 263 263 264 264 264 266 267
276 278 278 275 274 273 273 275 274 270 266 265 264 264 260 258 256 254 252 253 254 255 257 259 259 259 259 259 260 260 260 260 260 260 261 262 262 263 263 263 263 263 262 262 262 262 263 264 266
278 280 281 277 275 274 273 276 275 272 270 268 267 264 261 258 257 255 254 255 256 257 258 260 260 259 259 259 260 260 260 260 260 260 261 262 262 262 263 263 263 262 262 262 262 262 262 263 264
281 282 281 279 278 276 275 276 277 273 272 270 267 265 261 259 258 257 256 257 257 258 259 260 261 261 261 260 260 261 261 261 261 261 262 262 262 262 262 262 262 262 261 261 261 261 261 262 263
283 281 281 281 280 279 277 278 279 275 272 271 269 267 263 261 260 259 258 258 258 259 260 261 261 262 262 262 261 262 262 262 262 262 262 262 262 262 262 262 262 261 261 260 260 260 260 261 262
281 282 283 283 282 281 279 279 281 278 275 274 272 269 266 263 263 261 259 260 261 261 262 262 263 263 264 263 263 262 262 262 262 262 262 262 260 261 262 262 261 261 260 260 259 259 260 261 262
281 283 282 283 283 281 281 280 281 279 277 275 273 271 267 265 265 263 261 262 263 263 263 264 265 265 265 265 264 263 262 263 262 262 262 261 260 260 261 261 261 261 260 260 260 260 260 261 262
280 282 282 283 283 282 283 284 282 282 280 278 276 272 270 268 267 265 263 264 263 264 265 265 266 266 267 267 266 265 264 265 264 263 262 261 260 260 260 261 261 261 261 260 259 260 262 262 262
279 281 281 281 282 282 283 285 286 284 282 280 278 274 271 271 269 267 266 266 265 265 265 266 267 267 267 268 268 267 266 266 265 264 263 262 261 260 260 260 261 261 261 260 259 262 263 263 263
278 280 281 280 281 282 284 285 287 284 282 281 279 275 272 271 269 268 268 267 266 266 267 267 268 268 268 269 269 269 268 268 267 266 265 263 262 261 260 259 260 260 260 260 262 263 264 264 264
278 280 281 281 281 283 284 285 287 285 282 280 279 277 273 271 270 270 270 269 268 267 267 267 268 269 269 269 269 269 270 269 268 267 266 264 263 261 259 259 260 260 260 261 263 263 263 264 264
277 278 279 280 281 283 283 284 285 284 281 281 280 278 275 273 272 271 270 269 269 268 267 268 269 270 269 268 269 269 269 269 268 268 266 265 264 262 259 258 259 260 261 263 263 263 263 264 264
277 277 278 279 281 281 282 283 283 282 282 281 281 279 276 275 274 273 272 271 271 270 270 270 271 271 270 270 270 270 269 269 269 269 268 267 265 263 261 260 260 261 263 263 263 263 263 264 265
275 277 277 277 279 281 281 281 283 283 283 282 282 280 277 276 276 275 273 272 272 273 273 273 273 272 272 271 271 271 270 270 269 269 269 268 267 265 262 261 262 263 264 264 262 262 263 263 265
274 275 275 275 277 279 280 281 283 283 284 283 281 280 279 277 277 276 275 275 275 275 275 274 273 274 274 273 272 272 272 270 269 270 270 269 267 265 264 262 263 264 265 265 264 263 263 264 264
273 273 274 274 275 276 279 281 283 283 282 282 281 280 280 280 279 278 278 278 278 277 277 276 276 275 275 274 273 272 272 271 271 271 271 269 267 267 265 263 264 266 266 266 265 264 265 264 264
Height
5819 5820 5821 5822 5824 5825 5827 5830 5831 5832 5832 5832 5833 5834 5835 5836 5838 5841 5841 5840 5841 5842 5843 5844 5845 5846 5846 5847 5848 5848 5849 5850 5850 5850 5851 5851 5851 5852 5852 5852 5853 5853 5853 5853 5854 5854 5854 5854 5854
5815 5816 5817 5818 5819 5821 5824 5826 5827 5827 5828 5828 5829 5830 5831 5832 5833 5835 5835 5836 5837 5839 5840 5841 5841 5842 5843 5844 5845 5846 5846 5847 5847 5848 5848 5849 5849 5849 5850 5850 5850 5851 5851 5851 5851 5851 5851 5852 5851
5810 5811 5813 5814 5815 5818 5820 5821 5822 5822 5822 5823 5824 5825 5827 5828 5829 5830 5832 5832 5833 5835 5836 5837 5838 5839 5840 5840 5841 5842 5843 5844 5844 5845 5845 5846 5846 5847 5847 5847 5848 5848 5848 5849 5849 5849 5849 5849 5849
5805 5807 5808 5810 5811 5814 5815 5816 5816 5817 5817 5818 5819 5821 5822 5824 5825 5826 5827 5828 5829 5830 5832 5833 5834 5835 5836 5837 5838 5839 5840 5840 5841 5842 5842 5843 5843 5844 5844 5844 5845 5845 5845 5846 5846 5846 5846 5846 5846
5800 5801 5802 5804 5806 5808 5809 5810 5810 5811 5812 5813 5814 5815 5817 5819 5819 5821 5822 5823 5824 5826 5827 5828 5830 5831 5832 5833 5834 5835 5836 5836 5837 5838 5839 5839 5840 5840 5841 5841 5841 5842 5842 5842 5842 5842 5842 5842 5842
5795 5796 5797 5799 5800 5802 5803 5804 5804 5805 5806 5807 5808 5809 5812 5813 5814 5815 5817 5818 5819 5821 5822 5823 5825 5826 5827 5828 5829 5830 5831 5832 5833 5834 5835 5835 5836 5836 5837 5837 5837 5838 5838 5838 5838 5838 5838 5838 5838
5790 5790 5791 5793 5793 5795 5796 5797 5798 5798 5799 5801 5801 5802 5805 5807 5807 5809 5810 5812 5814 5815 5816 5818 5819 5820 5822 5823 5824 5825 5826 5827 5828 5829 5830 5831 5832 5832 5832 5833 5833 5833 5834 5834 5834 5834 5834 5834 5834
5783 5784 5785 5786 5786 5788 5789 5789 5790 5791 5792 5793 5793 5795 5798 5800 5801 5802 5804 5806 5807 5809 5810 5812 5813 5815 5816 5817 5819 5820 5821 5822 5823 5824 5825 5826 5826 5827 5827 5828 5828 5828 5829 5829 5829 5829 5829 5829 5829
5777 5778 5778 5779 5779 5780 5781 5781 5783 5783 5785 5785 5786 5787 5790 5792 5793 5795 5797 5799 5801 5802 5804 5806 5807 5808 5810 5811 5812 5814 5815 5816 5817 5818 5819 5820 5821 5821 5822 5822 5823 5823 5823 5824 5824 5824 5824 5824 5824
5770 5771 5772 5773 5772 5772 5773 5773 5774 5775 5776 5777 5778 5780 5782 5784 5786 5788 5790 5791 5794 5795 5797 5799 5800 5802 5803 5805 5806 5807 5808 5809 5811 5812 5813 5814 5814 5815 5816 5816 5817 5817 5818 5818 5818 5818 5818 5818 5818
5764 5765 5765 5765 5764 5763 5764 5765 5765 5766 5768 5769 5771 5773 5774 5776 5778 5780 5782 5784 5786 5788 5790 5791 5793 5795 5796 5798 5799 5800 5801 5803 5804 5805 5806 5807 5808 5808 5809 5810 5810 5811 5811 5811 5812 5812 5812 5812 5812
5758 5758 5758 5757 5756 5755 5755 5756 5757 5758 5760 5762 5763 5764 5766 5768 5770 5771 5774 5775 5778 5780 5782 5783 5785 5787 5789 5790 5791 5793 5794 5795 5797 5798 5799 5800 5800 5801 5802 5802 5803 5803 5804 5804 5805 5805 5805 5805 5805
5752 5752 5751 5750 5749 5748 5748 5748 5749 5751 5752 5754 5754 5756 5758 5759 5761 5763 5765 5767 5769 5772 5774 5776 5777 5779 5781 5782 5784 5785 5786 5788 5789 5790 5791 5792 5792 5793 5794 5795 5795 5796 5796 5796 5797 5797 5798 5798 5798
5746 5745 5744 5743 5742 5741 5741 5741 5741 5744 5745 5745 5746 5748 5749 5751 5752 5754 5757 5759 5761 5764 5766 5767 5769 5771 5772 5774 5775 5777 5778 5779 5780 5781 5782 5783 5784 5785 5785 5786 5786 5787 5788 5788 5788 5789 5789 5790 5790
5739 5738 5738 5736 5735 5734 5734 5735 5735 5736 5736 5737 5738 5739 5740 5742 5743 5746 5748 5751 5753 5755 5757 5759 5760 5762 5763 5765 5766 5767 5769 5770 5771 5772 5773 5774 5775 5775 5776 5776 5777 5777 5778 5778 5779 5780 5780 5781 5782
5732 5732 5731 5730 5729 5728 5729 5730 5729 5728 5728 5729 5729 5730 5731 5733 5735 5737 5739 5741 5744 5746 5747 5749 5750 5752 5753 5755 5756 5757 5759 5760 5761 5762 5763 5764 5765 5765 5765 5766 5766 5766 5767 5768 5769 5770 5771 5772 5772
5726 5725 5724 5723 5722 5721 5721 5722 5722 5721 5719 5720 5721 5722 5723 5724 5726 5728 5729 5732 5734 5736 5737 5739 5740 5741 5743 5744 5745 5747 5748 5750 5751 5752 5752 5753 5753 5754 5754 5755 5755 5755 5756 5757 5758 5759 5760 5762 5763
5720 5718 5717 5716 5715 5714 5714 5715 5715 5713 5712 5713 5713 5713 5714 5716 5718 5719 5721 5722 5724 5726 5727 5728 5730 5731 5732 5733 5734 5735 5737 5738 5739 5741 5741 5742 5742 5743 5743 5743 5743 5743 5744 5745 5747 5748 5750 5751 5752
5712 5711 5711 5710 5708 5707 5707 5708 5708 5707 5705 5705 5705 5705 5706 5708 5709 5710 5711 5712 5714 5715 5717 5718 5719 5719 5720 5722 5723 5724 5725 5727 5728 5729 5730 5730 5731 5731 5732 5732 5732 5732 5733 5734 5735 5737 5739 5740 5741
5705 5704 5703 5703 5701 5699 5700 5701 5701 5699 5699 5698 5698 5697 5698 5699 5700 5701 5702 5703 5705 5705 5706 5707 5708 5709 5709 5710 5711 5712 5713 5714 5715 5716 5717 5718 5718 5719 5720 5720 5720 5721 5721 5722 5724 5725 5727 5729 5730
5698 5697 5696 5695 5694 5693 5692 5694 5694 5692 5691 5690 5689 5689 5689 5690 5691 5692 5693 5694 5695 5696 5696 5697 5698 5698 5698 5699 5699 5700 5700 5701 5702 5704 5705 5705 5706 5707 5708 5708 5709 5710 5710 5711 5713 5714 5715 5717 5718
5692 5690 5688 5687 5686 5686 5686 5684 5688 5685 5684 5682 5681 5681 5681 5681 5682 5682 5683 5684 5685 5686 5686 5686 5687 5687 5687 5687 5687 5688 5688 5689 5690 5691 5691 5692 5693 5694 5695 5696 5697 5697 5698 5700 5701 5702 5703 5705 5706
5684 5683 5681 5680 5679 5679 5679 5677 5680 5678 5676 5674 5673 5673 5672 5672 5672 5673 5674 5674 5675 5675 5676 5676 5676 5676 5676 5676 5676 5676 5676 5676 5677 5677 5678 5679 5679 5681 5682 5683 5684 5685 5686 5687 5689 5690 5691 5692 5693
5676 5676 5674 5673 5672 5672 5673 5670 5671 5670 5668 5667 5666 5665 5664 5664 5663 5664 5664 5664 5664 5665 5665 5665 5665 5666 5665 5665 5664 5664 5664 5664 5664 5665 5665 5666 5666 5668 5669 5670 5671 5672 5673 5675 5676 5677 5678 5679 5680
5669 5668 5667 5665 5664 5664 5664 5662 5664 5662 5660 5658 5658 5657 5656 5655 5655 5654 5654 5654 5654 5654 5654 5654 5654 5654 5654 5653 5653 5653 5652 5652 5652 5653 5653 5653 5654 5655 5656 5657 5658 5659 5661 5662 5663 5664 5665 5666 5667
5662 5661 5659 5657 5655 5655 5655 5654 5656 5654 5651 5650 5649 5648 5647 5646 5646 5645 5644 5644 5644 5643 5643 5643 5643 5642 5642 5641 5641 5641 5640 5640 5640 5640 5640 5640 5641 5642 5643 5644 5645 5646 5647 5648 5649 5650 5651 5652 5653
5653 5652 5651 5649 5646 5645 5646 5647 5648 5646 5644 5642 5641 5640 5638 5637 5636 5635 5635 5634 5633 5632 5632 5631 5631 5630 5629 5629 5629 5629 5628 5628 5628 5628 5627 5628 5628 5629 5629 5630 5631 5632 5633 5633 5634 5635 5637 5637 5638
5645 5643 5642 5639 5636 5635 5636 5638 5639 5637 5636 5635 5633 5631 5629 5628 5627 5625 5624 5623 5622 5621 5621 5620 5619 5618 5617 5617 5616 5616 5616 5616 5615 5615 5614 5614 5615 5615 5615 5616 5617 5617 5618 5618 5619 5620 5621 5622 5623
5636 5635 5632 5630 5628 5626 5625 5631 5631 5629 5627 5625 5623 5621 5620 5618 5617 5615 5614 5613 5611 5610 5609 5608 5607 5606 5605 5604 5604 5603 5602 5602 5601 5601 5600 5600 5600 5600 5601 5601 5602 5602 5602 5602 5603 5604 5605 5606 5607
5626 5625 5624 5622 5620 5617 5615 5621 5622 5620 5618 5615 5613 5611 5609 5608 5606 5605 5603 5602 5601 5599 5598 5597 5595 5594 5593 5591 5590 5590 5589 5588 5588 5587 5586 5586 5585 5585 5586 5586 5587 5587 5587 5587 5587 5588 5589 5590 5591